Location: G�ndlingen
(48.0142°N, 7.6396°E)
Time: 17:37:50
(UTC+00:00)

In-Cosmos 22 Rocket - Pass Details

Date: 05 July 2020
Orbit: 791 x 887 km, 81.2° (Epoch: 13 August)

Event Time Altitude Azimuth Distance (km) Brightness Sun altitude
Exits shadow 21:29:59 21° 159° (SSE) 1,737 5.2 -14.0°
Maximum altitude 21:33:18 47° 94° (E) 1,037 4.4 -14.3°
Drops below altitude 10° 21:38:24 10° 22° (NNE) 2,373 7.1 -14.7°
Sets 21:40:52 0° 17° (NNE) 3,314 8.0 -14.9°
